Location: Kielce
(50.8833°N, 20.6167°E)
Time: 21:44:14
(UTC+02:00)

S-56A Canister/Altair - Visible Passes

Search period start: 19 April 2021 00:00
Search period end: 29 April 2021 00:00
Orbit: 632 x 2500 km, 38.9° (Epoch: 18 April)

Date Brightness Start Highest point End Pass type
(mag) Time Alt. Az. Time Alt. Az. Time Alt. Az.
19 Apr 9.5 02:48:45 12° SE 02:48:45 12° SE 02:49:06 10° SE visible
19 Apr 9.1 04:46:44 10° SW 04:48:06 11° SSW 04:49:27 10° S visible
20 Apr 9.0 04:15:24 13° SSW 04:15:40 13° SSW 04:17:44 10° S visible
21 Apr 9.1 03:44:43 13° S 03:44:43 13° S 03:45:51 10° SSE visible
22 Apr 10.4 22:26:17 10° SSW 22:27:54 14° SSW 22:27:54 14° SSW visible
23 Apr 9.9 21:53:15 10° SSW 21:58:21 19° S 21:58:21 19° S visible
24 Apr 9.8 21:20:12 10° SSW 21:26:50 19° SSE 21:28:39 18° SE visible
24 Apr 10.0 23:22:59 10° SW 23:26:10 19° SW 23:26:10 19° SW visible
25 Apr 10.0 20:47:12 10° SSW 20:54:02 19° SSE 20:58:46 12° ESE visible
25 Apr 9.4 22:49:42 10° SW 22:56:16 28° S 22:56:16 28° S visible
26 Apr 10.2 20:14:14 10° S 20:21:11 18° SSE 20:26:50 10° ESE visible
26 Apr 9.2 22:16:23 10° SW 22:24:55 30° S 22:26:10 29° SSE visible
27 Apr 10.1 00:21:11 10° WSW 00:23:39 18° WSW 00:23:39 18° WSW visible
27 Apr 9.5 21:43:02 10° SW 21:52:07 31° SSE 21:55:51 22° SE visible
27 Apr 9.5 23:47:47 10° WSW 23:53:19 28° SW 23:53:19 28° SW visible
28 Apr 9.7 21:09:40 10° SW 21:19:16 31° SSE 21:25:22 13° ESE visible
28 Apr 9.1 23:14:21 10° WSW 23:22:49 35° S 23:22:49 35° S visible
